Showing default

COSMOS 2524, 43032

Orbit data source: Space-Track

COSMOS 2524, 43032 is a payload satellite owned by VVKO VKS (CIS) in LEO that was launched on Sat, 02 Dec 2017 UTC via a SOYUZ-2-1B launch vehicle from the Plesetsk Missile And Space Complex (PKMTR). Payload-class satellites include a variety of spacecraft equipped with specific instruments for various scientific and technological missions. These include communications satellites like Starlink; space stations such as the ISS; scientific satellites like the Hubble; Earth observation satellites from companies like Planet Labs, Umbra, and HawkEye 360; GPS; miniature CubeSats for education and research; and military/defense satellites.

Loading next visibility...
Identifier
43032, 2017-076A
Orbit
LEO
Country
Flag of CISCIS
Related business
Manufacturer
TSSKBP/ARSLO
Mission
Operational Defense Sigint
Bus & Motor
YANTAR'-LOTOS, 11D428
Mass
6,575 kg wet, ~6,500 kg dry
Launch date (UTC)
2017-12-02 (8 years ago)
Launch vehicle
SOYUZ-2-1B
Launch site
Plesetsk Missile And Space Complex (PKMTR)
Object type
Payload
Rocket body
Debris
Shape & HBR
Cyl + 2 Pan, 3.1 m
Radar Cross Section
16.222 m², Large (>1 m²)

Expand to show TLE details & history
Last TLE update: 20 hours ago

TLE from 20 hours ago
0 COSMOS 2524
1 43032U 17076A   25259.62398719 -.00000024  00000-0  36769-4 0  9993
2 43032  67.1455 138.2600 0007923 301.5475  58.4836 13.97380332397381
Epoch: 2025-09-16T14:58Z
TLE epoch observation values (Epoch: 2025-09-16T14:58:32.493Z)
Latitude
0.00002°
Longitude
-82.187°
Altitude
901.977 km
Speed
7.403 km/s
True Right ascension
09h 13m 02s
True Declination
0° 00' 00"
Sunlit
Object was in daylight at epoch
Visualization orbit readout
Latitude
Unknown
Longitude
Unknown
Altitude
Unknown
Speed
Unknown
Apparent Right ascension
Unknown
Apparent Declination
Unknown
Sunlit
N/A
Visualization observer readout
Local Sidereal Time
03:22:01
Azimuth
Unknown
Elevation
Unknown
Doppler factor
Unknown
Orbital elements
Apogee altitude
906.997 km
Perigee altitude
895.462 km
Semi-major axis
7,279.367 km
Eccentricity
0.00079
Inclination
67.1455°
RAAN
138.26°
Arg. of periapsis
301.5475°
True anomaly
58.56104°
Mean anomaly
58.4836°
Eccentric anomaly
58.52232°
Mean motion
3.49464 °/min
Orbital period
103.01 mins
BSTAR
0.000036769
Loading maneuver chart data...
Computing Atmospheric mass density...
Loading historical data...
Loading historical data...
Loading historical data...
Loading historical data...
Loading historical data...
Loading historical data...
Loading historical data...
Other satellites on launch #76 in the year 2017 (2017-12-02 UTC)

Documentation

Showing up to 5 results
|